DAL8328 KCLT-KCHS

Flight info

Callsign DAL8328
Flight time 0h 27m
Altitude 20000
Route KWEEN5 UNJAM OSPRI7
Aircraft A20N/M-SDE2E3FGHIRWXY/LB1

Departure

Time 2026-05-05 00:54
Airport Charlotte Douglas International Airport (KCLT)

Arrival

Time 2026-05-05 01:22
Airport Charleston International Airport (KCHS)
Time Latitude Longitude Altitude Speed Heading
2026-05-05 00:40 35.21830 -80.94462 722 ft 0 kts 291°
2026-05-05 00:43 35.21828 -80.94456 722 ft 3 kts 291°
2026-05-05 00:44 35.21818 -80.94427 721 ft 11 kts 291°
2026-05-05 00:44 35.21820 -80.94394 720 ft 0 kts 173°
2026-05-05 00:45 35.21800 -80.94394 722 ft 0 kts 180°
2026-05-05 00:46 35.21782 -80.94394 721 ft 6 kts 180°
2026-05-05 00:46 35.21725 -80.94391 721 ft 11 kts 175°
2026-05-05 00:46 35.21637 -80.94387 722 ft 14 kts 195°
2026-05-05 00:46 35.21570 -80.94494 722 ft 18 kts 240°
2026-05-05 00:47 35.21561 -80.94507 721 ft 0 kts 220°
2026-05-05 00:48 35.21560 -80.94508 721 ft 1 kts 220°
2026-05-05 00:48 35.21539 -80.94519 721 ft 5 kts 192°
2026-05-05 00:49 35.21514 -80.94505 722 ft 8 kts 149°
2026-05-05 00:49 35.21473 -80.94443 721 ft 11 kts 100°
2026-05-05 00:49 35.21510 -80.94353 722 ft 14 kts 50°
2026-05-05 00:49 35.21585 -80.94253 721 ft 18 kts 49°
2026-05-05 00:50 35.21674 -80.94127 723 ft 21 kts 46°
2026-05-05 00:50 35.21778 -80.93983 724 ft 24 kts 50°
2026-05-05 00:50 35.21895 -80.93822 727 ft 27 kts 48°
2026-05-05 00:50 35.22051 -80.93714 727 ft 28 kts 358°
2026-05-05 00:51 35.22249 -80.93731 730 ft 30 kts 356°
2026-05-05 00:51 35.22426 -80.93747 730 ft 10 kts 356°
2026-05-05 00:51 35.22459 -80.93749 731 ft 0 kts 358°
2026-05-05 00:51 35.22472 -80.93748 731 ft 4 kts
2026-05-05 00:52 35.22494 -80.93737 731 ft 0 kts 38°
2026-05-05 00:52 35.22502 -80.93724 730 ft 4 kts 60°
2026-05-05 00:52 35.22508 -80.93677 732 ft 8 kts 86°
2026-05-05 00:52 35.22475 -80.93617 731 ft 11 kts 169°
2026-05-05 00:53 35.22434 -80.93611 730 ft 0 kts 174°
2026-05-05 00:53 35.22169 -80.93587 728 ft 92 kts 175°
2026-05-05 00:54 35.21210 -80.93505 745 ft 178 kts 176°
2026-05-05 00:54 35.19770 -80.93374 912 ft 239 kts 175°
2026-05-05 00:54 35.17932 -80.93184 1386 ft 288 kts 174°
2026-05-05 00:54 35.15864 -80.92977 1971 ft 294 kts 174°
2026-05-05 00:55 35.13857 -80.92776 2556 ft 292 kts 174°
2026-05-05 00:55 35.11816 -80.92571 3559 ft 294 kts 174°
2026-05-05 00:55 35.09796 -80.92376 4321 ft 297 kts 174°
2026-05-05 00:55 35.07724 -80.92175 5025 ft 300 kts 174°
2026-05-05 00:56 35.05635 -80.91968 5727 ft 303 kts 174°
2026-05-05 00:56 35.03537 -80.91587 6430 ft 306 kts 168°
2026-05-05 00:56 35.01435 -80.91070 7132 ft 309 kts 168°
2026-05-05 00:56 34.99276 -80.90551 7844 ft 327 kts 168°
2026-05-05 00:57 34.96969 -80.90042 8561 ft 347 kts 169°
2026-05-05 00:57 34.94529 -80.89542 9272 ft 362 kts 170°
2026-05-05 00:57 34.92017 -80.89051 9979 ft 371 kts 171°
2026-05-05 00:57 34.89415 -80.88551 10685 ft 385 kts 171°
2026-05-05 00:58 34.86724 -80.88036 11393 ft 397 kts 171°
2026-05-05 00:58 34.83977 -80.87509 12096 ft 402 kts 171°
2026-05-05 00:58 34.81200 -80.86977 12799 ft 406 kts 171°
2026-05-05 00:58 34.78390 -80.86439 13503 ft 410 kts 171°
2026-05-05 00:59 34.75558 -80.85897 14205 ft 414 kts 171°
2026-05-05 00:59 34.72694 -80.85348 14907 ft 419 kts 171°
2026-05-05 00:59 34.69802 -80.84793 15610 ft 423 kts 171°
2026-05-05 00:59 34.66871 -80.84333 16311 ft 427 kts 175°
2026-05-05 01:00 34.63894 -80.84074 17016 ft 431 kts 176°
2026-05-05 01:00 34.60884 -80.83810 17720 ft 436 kts 176°
2026-05-05 01:00 34.57840 -80.83540 18422 ft 440 kts 176°
2026-05-05 01:00 34.54774 -80.83265 19123 ft 444 kts 176°
2026-05-05 01:01 34.51674 -80.82987 19826 ft 448 kts 176°
2026-05-05 01:01 34.48560 -80.82708 20519 ft 451 kts 176°
2026-05-05 01:01 34.45405 -80.82424 20895 ft 457 kts 176°
2026-05-05 01:01 34.42225 -80.82137 21001 ft 463 kts 176°
2026-05-05 01:02 34.38973 -80.81845 21009 ft 470 kts 176°
2026-05-05 01:02 34.35712 -80.81552 21007 ft 470 kts 176°
2026-05-05 01:02 34.32487 -80.81262 21007 ft 471 kts 176°
2026-05-05 01:02 34.29217 -80.80970 21007 ft 470 kts 176°
2026-05-05 01:03 34.25951 -80.80678 21007 ft 471 kts 176°
2026-05-05 01:03 34.22689 -80.80385 21007 ft 471 kts 176°
2026-05-05 01:03 34.19422 -80.80106 21007 ft 470 kts 176°
2026-05-05 01:03 34.16155 -80.79889 21007 ft 471 kts 177°
2026-05-05 01:04 34.12884 -80.79694 21007 ft 470 kts 177°
2026-05-05 01:04 34.06348 -80.79300 21007 ft 470 kts 177°
2026-05-05 01:04 34.03080 -80.79095 21007 ft 470 kts 177°
2026-05-05 01:05 33.99808 -80.78888 21007 ft 470 kts 177°
2026-05-05 01:05 33.96540 -80.78679 21007 ft 471 kts 177°
2026-05-05 01:05 33.93269 -80.78470 21007 ft 470 kts 177°
2026-05-05 01:05 33.89997 -80.78261 21007 ft 470 kts 177°
2026-05-05 01:06 33.86731 -80.78053 21007 ft 470 kts 177°
2026-05-05 01:06 33.83483 -80.77845 21006 ft 460 kts 177°
2026-05-05 01:06 33.80425 -80.77650 21006 ft 433 kts 177°
2026-05-05 01:06 33.77508 -80.77464 21006 ft 407 kts 177°
2026-05-05 01:07 33.74754 -80.77289 21007 ft 388 kts 177°
2026-05-05 01:07 33.72038 -80.77117 21007 ft 395 kts 177°
2026-05-05 01:07 33.69294 -80.76943 21007 ft 394 kts 177°
2026-05-05 01:07 33.66557 -80.76770 21007 ft 394 kts 177°
2026-05-05 01:08 33.63817 -80.76596 21007 ft 394 kts 177°
2026-05-05 01:08 33.61080 -80.76422 21007 ft 394 kts 177°
2026-05-05 01:08 33.58343 -80.76246 20986 ft 394 kts 176°
2026-05-05 01:08 33.55604 -80.76057 20723 ft 394 kts 176°
2026-05-05 01:09 33.52875 -80.75868 20169 ft 392 kts 176°
2026-05-05 01:09 33.50160 -80.75688 19497 ft 389 kts 177°
2026-05-05 01:09 33.47467 -80.75516 18826 ft 386 kts 177°
2026-05-05 01:09 33.44795 -80.75348 18149 ft 382 kts 177°
2026-05-05 01:10 33.42156 -80.75184 17471 ft 378 kts 177°
2026-05-05 01:10 33.39536 -80.75022 16797 ft 375 kts 177°
2026-05-05 01:10 33.36940 -80.74850 16121 ft 372 kts 175°
2026-05-05 01:10 33.34405 -80.74313 15445 ft 369 kts 165°
2026-05-05 01:11 33.32012 -80.73242 14739 ft 367 kts 154°
2026-05-05 01:11 33.29770 -80.71758 13859 ft 370 kts 150°
2026-05-05 01:11 33.27532 -80.70221 12957 ft 372 kts 150°
2026-05-05 01:11 33.25313 -80.68624 12053 ft 373 kts 144°
2026-05-05 01:12 33.23432 -80.66493 11157 ft 374 kts 128°
2026-05-05 01:12 33.22110 -80.63839 10441 ft 370 kts 112°
2026-05-05 01:12 33.21194 -80.61072 9985 ft 358 kts 110°
2026-05-05 01:12 33.20303 -80.58318 9295 ft 354 kts 110°
2026-05-05 01:13 33.19409 -80.55592 8564 ft 352 kts 111°
2026-05-05 01:13 33.18513 -80.52917 7833 ft 341 kts 111°
2026-05-05 01:13 33.17636 -80.50339 7116 ft 330 kts 111°
2026-05-05 01:13 33.16777 -80.47834 6300 ft 323 kts 112°
2026-05-05 01:14 33.15931 -80.45370 5451 ft 319 kts 112°
2026-05-05 01:14 33.15095 -80.42938 4635 ft 314 kts 112°
2026-05-05 01:14 33.14299 -80.40582 4222 ft 297 kts 109°
2026-05-05 01:14 33.13802 -80.38293 4050 ft 273 kts 99°
2026-05-05 01:15 33.13644 -80.36083 4012 ft 269 kts 90°
2026-05-05 01:15 33.13630 -80.33859 3998 ft 266 kts 90°
2026-05-05 01:15 33.13605 -80.31645 4008 ft 267 kts 90°
2026-05-05 01:15 33.13576 -80.29431 4007 ft 264 kts 90°
2026-05-05 01:16 33.13548 -80.27307 4010 ft 248 kts 90°
2026-05-05 01:16 33.13522 -80.25318 4010 ft 232 kts 91°
2026-05-05 01:16 33.13497 -80.23443 3997 ft 223 kts 91°
2026-05-05 01:16 33.13097 -80.21657 4008 ft 225 kts 125°
2026-05-05 01:17 33.11956 -80.20436 4025 ft 215 kts 146°
2026-05-05 01:17 33.10733 -80.19497 4007 ft 208 kts 148°
2026-05-05 01:17 33.09505 -80.18581 4007 ft 208 kts 148°
2026-05-05 01:17 33.08287 -80.17672 3940 ft 206 kts 149°
2026-05-05 01:18 33.07076 -80.16802 3686 ft 207 kts 153°
2026-05-05 01:18 33.05856 -80.15920 3401 ft 199 kts 150°
2026-05-05 01:18 33.04735 -80.15059 3147 ft 189 kts 150°
2026-05-05 01:18 33.03637 -80.14222 2894 ft 181 kts 150°
2026-05-05 01:19 33.02583 -80.13414 2667 ft 183 kts 149°
2026-05-05 01:19 33.01515 -80.12599 2414 ft 182 kts 149°
2026-05-05 01:19 33.00450 -80.11786 2167 ft 181 kts 149°
2026-05-05 01:19 32.99387 -80.10976 1930 ft 181 kts 149°
2026-05-05 01:20 32.98330 -80.10170 1690 ft 180 kts 149°
2026-05-05 01:20 32.97275 -80.09367 1450 ft 180 kts 149°
2026-05-05 01:20 32.96224 -80.08566 1212 ft 179 kts 149°
2026-05-05 01:20 32.95176 -80.07768 976 ft 178 kts 149°
2026-05-05 01:21 32.94134 -80.06974 738 ft 178 kts 148°
2026-05-05 01:21 32.93094 -80.06183 502 ft 177 kts 148°
2026-05-05 01:21 32.92086 -80.05415 269 ft 165 kts 148°
2026-05-05 01:21 32.91185 -80.04729 65 ft 142 kts 148°
2026-05-05 01:22 32.90568 -80.04262 51 ft 55 kts 147°
2026-05-05 01:22 32.90271 -80.04030 54 ft 49 kts 147°
2026-05-05 01:22 32.89992 -80.03821 49 ft 46 kts 148°
2026-05-05 01:22 32.89739 -80.03632 49 ft 31 kts 148°
2026-05-05 01:23 32.89519 -80.03586 46 ft 34 kts 179°
2026-05-05 01:23 32.89305 -80.03591 47 ft 31 kts 181°
2026-05-05 01:23 32.89082 -80.03598 46 ft 34 kts 181°
2026-05-05 01:23 32.88913 -80.03617 42 ft 26 kts 189°
2026-05-05 01:24 32.88724 -80.03648 38 ft 16 kts 189°
2026-05-05 01:24 32.88618 -80.03702 38 ft 18 kts 212°
2026-05-05 01:24 32.88539 -80.03652 37 ft 0 kts 108°